Showing default

VELOX-P 2, 39438

Orbit data source: Space-Track

VELOX-P 2, 39438 is a payload satellite owned by NTU (SG) in SSO that was launched on Thu, 21 Nov 2013 UTC via a DNEPR launch vehicle from the Orenburg, Russia (OREN). Payload-class satellites include a variety of spacecraft equipped with specific instruments for various scientific and technological missions. These include communications satellites like Starlink; space stations such as the ISS; scientific satellites like the Hubble; Earth observation satellites from companies like Planet Labs, Umbra, and HawkEye 360; GPS; miniature CubeSats for education and research; and military/defense satellites.

Loading next visibility...
Identifier
39438, 2013-066Y
Orbit
SSO
Country
Flag of UnknownUnknown / SING
Related business
Manufacturer
NTU
Mission
Non-operational Amateur Technology
Bus & Motor
CUBESAT 1U, Unknown motor
Mass
1 kg wet, 1 kg dry
Launch date (UTC)
2013-11-21 (12 years ago)
Launch vehicle
DNEPR
Launch site
Orenburg, Russia (OREN)
Object type
Payload
Rocket body
Debris
Shape & HBR
Box, 0.1 m
Radar Cross Section
0.015 m², Small (<0.1 m²)

Expand to show TLE details & history
Last TLE update: 14 hours ago

TLE from 14 hours ago
0 VELOX-P 2
1 39438U 13066Y   25300.35306360  .00005690  00000-0  56339-3 0  9998
2 39438  97.8455 247.1864 0056356  35.4612 325.0332 14.91049169643112
Epoch: 2025-10-27T08:28Z
TLE epoch observation values (Epoch: 2025-10-27T08:28:24.695Z)
Latitude
0.00001°
Longitude
84.12737°
Altitude
565.565 km
Speed
7.596 km/s
True Right ascension
16h 28m 44s
True Declination
0° 00' 00"
Sunlit
Object was in daylight at epoch
Visualization orbit readout
Latitude
Unknown
Longitude
Unknown
Altitude
Unknown
Speed
Unknown
Apparent Right ascension
Unknown
Apparent Declination
Unknown
Sunlit
N/A
Visualization observer readout
Local Sidereal Time
18:13:06
Azimuth
Unknown
Elevation
Unknown
Doppler factor
Unknown
Orbital elements
Apogee altitude
630.965 km
Perigee altitude
552.407 km
Semi-major axis
6,969.823 km
Eccentricity
0.00564
Inclination
97.8455°
RAAN
247.1864°
Arg. of periapsis
35.4612°
True anomaly
324.66095°
Mean anomaly
325.0332°
Eccentric anomaly
324.84729°
Mean motion
3.73001 °/min
Orbital period
96.51 mins
BSTAR
0.00056339
Loading maneuver chart data...
Computing Atmospheric mass density...
Loading historical data...
Loading historical data...
Loading historical data...
Loading historical data...
Loading historical data...
Loading historical data...
Loading historical data...

Documentation

Showing up to 5 results
|